Delaware, OH

7:18 PM EST on February 06, 2016 (GMT -0500)
Delaware Municipal

Weather History for KDLZ - November, 2012

Change the Weather History Date:

Friday, November 30, 2012

  Actual Average Record
Temperature  
Mean Temperature 42 °F -  
Max Temperature 53 °F 42 °F 65 °F (1991)
Min Temperature 32 °F 27 °F -4 °F (1958)
Degree Days  
Heating Degree Days 22    
Moisture  
Dew Point 30 °F    
Average Humidity 64    
Maximum Humidity 81    
Minimum Humidity 44    
Precipitation  
Precipitation 0.00 in - - ()
Sea Level Pressure  
Sea Level Pressure 30.20 in    
Wind  
Wind Speed 6 mph (South)    
Max Wind Speed 15 mph    
Max Gust Speed 22 mph    
Visibility 10 miles    
Events      
Averages and records for this station are not official NWS values.
T = Trace of Precipitation, MM = Missing Value Source: NWS Daily Summary

Daily Weather History Graph

Daily Weather History Graph

Search for Another Location

Airport or City:

Trip Planner

Search our weather history database for the weather conditions in past years. The results will help you decide how hot, cold, wet, or windy it might be!

Date:

Astronomy

Nov. 30, 2012 Rise Set
Actual Time 7:35 AM EST 5:07 PM EST
Civil Twilight 7:05 AM EST 5:37 PM EST
Nautical Twilight 6:31 AM EST 6:10 PM EST
Astronomical Twilight 5:58 AM EST 6:43 PM EST
Moon 7:00 PM EST (11/30) 9:06 AM EST (11/30)
Length of Visible Light 10h 32m
Length of Day
9h 31m
Waning Gibbous, 96% of the Moon is Illuminated
Nov 30
Waning Gibbous
Dec 6
Last Quarter
Dec 13
New
Dec 20
First Quarter
Dec 28
Full

Hourly Weather History & Observations

Time (EST) Temp. Windchill Dew Point Humidity Pressure Visibility Wind Dir Wind Speed Gust Speed Precip Events Conditions
12:19 AM 37.4 °F 33.8 °F 28.4 °F 70% 30.25 in 10.0 mi SSE 4.6 mph - N/A   Overcast
12:39 AM 35.6 °F 32.8 °F 26.6 °F 70% 30.25 in 10.0 mi SE 3.5 mph - N/A   Overcast
12:59 AM 35.6 °F 31.7 °F 26.6 °F 70% 30.24 in 10.0 mi SE 4.6 mph - N/A   Mostly Cloudy
1:19 AM 33.8 °F 30.8 °F 26.6 °F 75% 30.24 in 10.0 mi SE 3.5 mph - N/A   Scattered Clouds
1:39 AM 33.8 °F 30.8 °F 26.6 °F 75% 30.24 in 10.0 mi SSE 3.5 mph - N/A   Scattered Clouds
1:58 AM 32.0 °F - 24.8 °F 75% 30.24 in 10.0 mi Calm Calm - N/A   Scattered Clouds
2:19 AM 33.8 °F 28.6 °F 26.6 °F 75% 30.24 in 10.0 mi SSE 5.8 mph - N/A   Mostly Cloudy
2:39 AM 33.8 °F 27.7 °F 26.6 °F 75% 30.24 in 10.0 mi SSE 6.9 mph - N/A   Overcast
2:58 AM 33.8 °F 29.6 °F 26.6 °F 75% 30.24 in 10.0 mi SSE 4.6 mph - N/A   Overcast
3:19 AM 33.8 °F 28.6 °F 28.4 °F 81% 30.23 in 10.0 mi SSE 5.8 mph - N/A   Overcast
3:39 AM 35.6 °F 32.8 °F 28.4 °F 75% 30.23 in 10.0 mi South 3.5 mph - N/A   Overcast
3:59 AM 35.6 °F 32.8 °F 26.6 °F 70% 30.22 in 10.0 mi South 3.5 mph - N/A   Mostly Cloudy
4:19 AM 35.6 °F 31.7 °F 26.6 °F 70% 30.22 in 10.0 mi South 4.6 mph - N/A   Scattered Clouds
4:39 AM 35.6 °F 31.7 °F 26.6 °F 70% 30.22 in 10.0 mi South 4.6 mph - N/A   Scattered Clouds
4:59 AM 33.8 °F 29.6 °F 26.6 °F 75% 30.22 in 10.0 mi South 4.6 mph - N/A   Clear
5:19 AM 33.8 °F 29.6 °F 26.6 °F 75% 30.22 in 10.0 mi South 4.6 mph - N/A   Clear
5:39 AM 33.8 °F 28.6 °F 26.6 °F 75% 30.22 in 10.0 mi South 5.8 mph - N/A   Clear
5:59 AM 33.8 °F 29.6 °F 26.6 °F 75% 30.22 in 10.0 mi South 4.6 mph - N/A   Clear
6:19 AM 33.8 °F 28.6 °F 26.6 °F 75% 30.22 in 10.0 mi South 5.8 mph - N/A   Clear
6:39 AM 32.0 °F 28.7 °F 26.6 °F 80% 30.22 in 10.0 mi South 3.5 mph - N/A   Clear
6:59 AM 32.0 °F 27.5 °F 26.6 °F 80% 30.22 in 10.0 mi SSE 4.6 mph - N/A   Clear
7:19 AM 32.0 °F 28.7 °F 26.6 °F 80% 30.22 in 10.0 mi SSE 3.5 mph - N/A   Clear
7:39 AM 32.0 °F 27.5 °F 26.6 °F 80% 30.23 in 10.0 mi South 4.6 mph - N/A   Clear
7:59 AM 32.0 °F 26.4 °F 26.6 °F 80% 30.23 in 10.0 mi South 5.8 mph - N/A   Clear
8:19 AM 32.0 °F 26.4 °F 26.6 °F 80% 30.22 in 10.0 mi South 5.8 mph - N/A   Clear
8:39 AM 33.8 °F 28.6 °F 28.4 °F 81% 30.23 in 10.0 mi South 5.8 mph - N/A   Clear
8:59 AM 35.6 °F 29.9 °F 28.4 °F 75% 30.23 in 10.0 mi South 6.9 mph - N/A   Clear
9:19 AM 37.4 °F 32.1 °F 28.4 °F 70% 30.24 in 10.0 mi South 6.9 mph - N/A   Clear
9:39 AM 41.0 °F 34.7 °F 30.2 °F 65% 30.24 in 10.0 mi SSW 10.4 mph - N/A   Clear
9:59 AM 42.8 °F 37.5 °F 30.2 °F 61% 30.23 in 10.0 mi SSW 9.2 mph - N/A   Clear
10:19 AM 42.8 °F 37.5 °F 30.2 °F 61% 30.23 in 10.0 mi South 9.2 mph - N/A   Clear
10:39 AM 44.6 °F 38.4 °F 30.2 °F 57% 30.23 in 10.0 mi SSW 12.7 mph - N/A   Clear
10:59 AM 44.6 °F 39.7 °F 30.2 °F 57% 30.22 in 10.0 mi South 9.2 mph - N/A   Clear
11:19 AM 46.4 °F 40.4 °F 30.2 °F 53% 30.21 in 10.0 mi South 13.8 mph - N/A   Clear
11:39 AM 46.4 °F 40.4 °F 30.2 °F 53% 30.20 in 10.0 mi SSW 13.8 mph 21.9 mph N/A   Clear
11:59 AM 50.0 °F - 30.2 °F 47% 30.19 in 10.0 mi SSW 13.8 mph 19.6 mph N/A   Clear
12:19 PM 50.0 °F - 32.0 °F 50% 30.18 in 10.0 mi SSW 11.5 mph - N/A   Clear
12:39 PM 51.8 °F - 32.0 °F 47% 30.17 in 10.0 mi SSW 11.5 mph - N/A   Clear
12:59 PM 51.8 °F - 32.0 °F 47% 30.17 in 10.0 mi SSW 12.7 mph 18.4 mph N/A   Scattered Clouds
1:19 PM 53.6 °F - 32.0 °F 44% 30.16 in 10.0 mi WSW 10.4 mph - N/A   Scattered Clouds
1:39 PM 53.6 °F - 32.0 °F 44% 30.15 in 10.0 mi SW 13.8 mph 18.4 mph N/A   Clear
1:59 PM 53.6 °F - 32.0 °F 44% 30.15 in 10.0 mi SSW 13.8 mph - N/A   Scattered Clouds
2:19 PM 53.6 °F - 32.0 °F 44% 30.14 in 10.0 mi SSW 11.5 mph - N/A   Mostly Cloudy
2:39 PM 53.6 °F - 32.0 °F 44% 30.14 in 10.0 mi SSW 10.4 mph - N/A   Scattered Clouds
2:59 PM 53.6 °F - 32.0 °F 44% 30.14 in 10.0 mi SW 9.2 mph - N/A   Scattered Clouds
3:19 PM 53.6 °F - 32.0 °F 44% 30.14 in 10.0 mi SSW 15.0 mph - N/A   Scattered Clouds
3:39 PM 53.6 °F - 32.0 °F 44% 30.14 in 10.0 mi SSW 10.4 mph - N/A   Scattered Clouds
3:59 PM 51.8 °F - 32.0 °F 47% 30.15 in 10.0 mi SW 10.4 mph - N/A   Mostly Cloudy
4:19 PM 51.8 °F - 32.0 °F 47% 30.15 in 10.0 mi SW 8.1 mph - N/A   Overcast
4:39 PM 51.8 °F - 32.0 °F 47% 30.15 in 10.0 mi SSW 5.8 mph - N/A   Mostly Cloudy
4:59 PM 50.0 °F - 32.0 °F 50% 30.15 in 10.0 mi SSW 5.8 mph - N/A   Overcast
5:19 PM 50.0 °F - 32.0 °F 50% 30.16 in 10.0 mi South 3.5 mph - N/A   Overcast
5:39 PM 48.2 °F - 32.0 °F 54% 30.16 in 10.0 mi South 3.5 mph - N/A   Overcast
5:59 PM 48.2 °F - 32.0 °F 54% 30.17 in 10.0 mi South 3.5 mph - N/A   Mostly Cloudy
6:19 PM 46.4 °F 44.3 °F 32.0 °F 57% 30.17 in 10.0 mi South 4.6 mph - N/A   Scattered Clouds
6:39 PM 46.4 °F 43.5 °F 33.8 °F 62% 30.17 in 10.0 mi South 5.8 mph - N/A   Scattered Clouds
6:59 PM 46.4 °F 44.3 °F 33.8 °F 62% 30.17 in 10.0 mi South 4.6 mph - N/A   Scattered Clouds
7:19 PM 46.4 °F 43.5 °F 33.8 °F 62% 30.17 in 10.0 mi South 5.8 mph - N/A   Mostly Cloudy
7:39 PM 46.4 °F 43.5 °F 33.8 °F 62% 30.18 in 10.0 mi South 5.8 mph - N/A   Mostly Cloudy
7:59 PM 44.6 °F 43.1 °F 33.8 °F 66% 30.19 in 10.0 mi South 3.5 mph - N/A   Scattered Clouds
8:19 PM 44.6 °F 42.2 °F 33.8 °F 66% 30.19 in 10.0 mi South 4.6 mph - N/A   Mostly Cloudy
8:39 PM 44.6 °F 41.4 °F 35.6 °F 71% 30.20 in 10.0 mi SSW 5.8 mph - N/A   Scattered Clouds
8:59 PM 44.6 °F 42.2 °F 35.6 °F 71% 30.20 in 10.0 mi SSW 4.6 mph - N/A   Mostly Cloudy
9:19 PM 44.6 °F 42.2 °F 35.6 °F 71% 30.21 in 10.0 mi SSW 4.6 mph - N/A   Overcast
9:39 PM 44.6 °F - 35.6 °F 71% 30.21 in 10.0 mi Calm Calm - N/A   Overcast
10:19 PM 42.8 °F 40.1 °F 35.6 °F 76% 30.21 in 10.0 mi South 4.6 mph - N/A   Overcast
10:39 PM 42.8 °F 39.3 °F 35.6 °F 76% 30.21 in 10.0 mi South 5.8 mph - N/A   Overcast
10:59 PM 42.8 °F 41.1 °F 35.6 °F 76% 30.21 in 10.0 mi South 3.5 mph - N/A   Mostly Cloudy
11:19 PM 42.8 °F 39.3 °F 35.6 °F 76% 30.21 in 10.0 mi South 5.8 mph - N/A   Mostly Cloudy
11:39 PM 42.8 °F 40.1 °F 33.8 °F 70% 30.20 in 10.0 mi South 4.6 mph - N/A   Scattered Clouds
11:59 PM 41.0 °F 37.1 °F 33.8 °F 76% 30.20 in 10.0 mi South 5.8 mph - N/A   Clear